This is the latest recevied weather packets stored in our database for station/object KC3AWA. If no packets are shown the sender has not sent any weather packets the latest 10 day(s).
| Time | Temp. | Humidity | Pressure | Rain* | Wind** | Luminosity | Snow |
|---|---|---|---|---|---|---|---|
| 1778074218 | 8.33° C | 97% | 1009.3 hPa | 0 mm | - | 130 W/m² | - |
| 1778073915 | 8.33° C | 97% | 1009 hPa | 0 mm | - | 135 W/m² | - |
| 1778073612 | 8.33° C | 97% | 1009 hPa | 0 mm | - | 148 W/m² | - |
| 1778073309 | 8.33° C | 97% | 1008.9 hPa | 0 mm | - | 151 W/m² | - |
| 1778073006 | 7.78° C | 97% | 1008.6 hPa | 0 mm | - | 145 W/m² | - |
| 1778072703 | 7.78° C | 97% | 1008.6 hPa | 0 mm | - | 136 W/m² | - |
| 1778072400 | 7.78° C | 98% | 1008.5 hPa | 0 mm | - | 84 W/m² | - |
| 1778072098 | 7.78° C | 98% | 1008.4 hPa | 0 mm | - | 75 W/m² | - |
| 1778071795 | 7.78° C | 98% | 1008.6 hPa | 0 mm | - | 94 W/m² | - |
| 1778071493 | 7.78° C | 97% | 1008.3 hPa | 0 mm | - | 173 W/m² | - |
| 1778071191 | 7.78° C | 98% | 1008.3 hPa | 0 mm | - | 114 W/m² | - |
| 1778070889 | 7.78° C | 98% | 1008.4 hPa | 1.27 mm | - | 79 W/m² | - |
| 1778070586 | 7.78° C | 98% | 1008.3 hPa | 1.27 mm | - | 56 W/m² | - |
| 1778070283 | 7.78° C | 98% | 1008.6 hPa | 0 mm | - | 59 W/m² | - |
| 1778069981 | 7.78° C | 98% | 1008.5 hPa | 1.78 mm | - | 72 W/m² | - |
| 1778069678 | 7.78° C | 98% | 1008.6 hPa | 1.78 mm | - | 34 W/m² | - |
| 1778069375 | 7.78° C | 98% | 1009.2 hPa | 0 mm | - | 37 W/m² | - |
| 1778069072 | 7.78° C | 98% | 1009.3 hPa | 0 mm | - | 25 W/m² | - |
| 1778068769 | 7.78° C | 98% | 1008.8 hPa | 0 mm | - | 26 W/m² | - |
| 1778068468 | 7.78° C | 98% | 1008.5 hPa | 0 mm | - | 17 W/m² | - |
| 1778068166 | 7.78° C | 98% | 1008.8 hPa | 0 mm | - | 21 W/m² | - |
| 1778067863 | 7.78° C | 98% | 1008.5 hPa | 0 mm | - | 13 W/m² | - |
| 1778067561 | 7.78° C | 98% | 1008.3 hPa | 0 mm | - | 17 W/m² | - |
| 1778067259 | 7.78° C | 98% | 1008.3 hPa | 1.27 mm | - | 15 W/m² | - |
| 1778066955 | 7.78° C | 98% | 1008 hPa | 1.27 mm | - | 16 W/m² | - |
* Rain latest hour (hover to see other rain measurements)
** Current wind speed in m/s (hover to see current wind gust speed)